Weather in Perelub

Russia / Saratov Oblast     51°51′30″N   50°21′16″E
temp.,
°C
wind,
m/s
gust,
m/s
humid.,
%
clouds,
%
prec.,
mm/h
press.,
hPa
HPBL,
m
13 april, tue
tue1301:00+11ese4767100 0.0 103397
04:00+8e467434 0.0 103491
07:00+7ese49625 0.0 1035153
10:00+14ese693810 0.0 1034444
13:00+18se67305 0.0 1034826
16:00+19ese67335 0.0 1032954
19:00+15e48531 0.0 1031146
22:00+11e412611 0.0 1031201
14 april, wed
wed1401:00+9ese411790 0.0 1031194
04:00+8e510941 0.0 1030185
07:00+8e510935 0.0 1030261
10:00+13ese79710 0.0 1028535
13:00+16ese78574 0.0 1027951
16:00+18ese67480 0.0 10251214
19:00+15e47610 0.0 1024124
22:00+11e48700 0.0 1024132
15 april, thu
thu1501:00+10e49730 0.0 1022125
04:00+9ese47770 0.0 1022108
07:00+9ese49780 0.0 1022162
10:00+16se68550 0.0 1021436
13:00+19se67428 0.0 1019972
16:00+20se5636100 0.0 10181526
19:00+16ese3348100 0.0 101830
22:00
16 april, fri
fri1601:00+11e456447 0.0 101667
04:00+10e4567100 0.0 101667
07:00+10e3668100 0.0 101696
10:00+15ese4552100 0.0 1015307
13:00+18ese3441100 0.0 1015755
16:00+19ese3337100 0.0 10151031
19:00+17ese1248100 0.0 101511
22:00+14nne225299 0.0 101513
17 april, sat
sat1701:00+13nne2258100 0.0 101612
04:00+10ne466899 0.0 101696
07:00+10ne478947 0.0 1017216
10:00+14ne666935 0.0 1017573
13:00+15nne665930 0.0 1018939
16:00+16nne775214 0.0 10181305
19:00+13ne610475 0.0 1019445
22:00+9ne613530 0.0 1020457